Weather History for Ely, NV

Change the Weather History Date:

Wednesday, December 19, 2012

  Actual Average Record
Temperature  
Mean Temperature -19 °C -4 °C  
Max Temperature -11 °C 4 °C 19 °C (1910)
Min Temperature -28 °C -12 °C -27 °C (2012)
Degree Days  
Heating Degree Days 68 40  
Month to date heating degree days 641 746  
Since 1 July heating degree days 2063 2614  
Cooling Degree Days 0 0  
Month to date cooling degree days 0 0  
Year to date cooling degree days 314 218  
Moisture  
Dew Point -21 °C    
Average Humidity 83    
Maximum Humidity 95    
Minimum Humidity 70    
Precipitation  
Precipitation 11.94 mm 0.51 mm 1.42 mm (2010)
Month to date precipitation 1.74 0.33  
Year to date precipitation 12.26 9.50  
Snow  
Snow 0.00 cm 0.76 cm 12.70 cm (1949)
Month to date snowfall 15.8 4.5  
Since 1 July snowfall 25.8 14.0  
Snow Depth 30.48 cm    
Sea Level Pressure  
Sea Level Pressure 1030 hPa    
Wind  
Wind Speed 14 km/h (South)    
Max Wind Speed 27 km/h    
Max Gust Speed 32 km/h    
Visibility 16 kilometers    
Events      
T = Trace of Precipitation, MM = Missing Value Source: NWS Daily Summary

Daily Weather History Graph

Daily Weather History Graph

Search for Another Location

Airport:

Trip Planner

Search our weather history database for the weather conditions in past years. The results will help you decide how hot, cold, wet, or windy it might be!

Date:

Astronomy

Dec. 19, 2012 Rise Set
Actual Time 6:54 AM PST 4:18 PM PST
Civil Twilight 6:24 AM PST 4:49 PM PST
Nautical Twilight 5:50 AM PST 5:22 PM PST
Astronomical Twilight 5:18 AM PST 5:55 PM PST
Moon 11:08 AM PST (12/19) 11:48 PM PST (12/19)
Length of Visible Light 10h 24m
Length of Day
9h 24m
Waxing Crescent, 46% of the Moon is Illuminated
Dec 19
Waxing Crescent
Dec 19
First Quarter
Dec 28
Full
Jan 4
Last Quarter
Jan 11
New

Hourly Weather History & Observations

Time (PST) Temp. Windchill Dew Point Humidity Pressure Visibility Wind Dir Wind Speed Gust Speed Precip Events Conditions
12:53 AM -13.3 °C -21.2 °C -15.0 °C 87% 1015.8 hPa 16.1 km NNW 16.7 km/h / 4.6 m/s - 0.0 mm   Partly Cloudy
1:53 AM -16.1 °C - -18.3 °C 84% 1017.7 hPa 16.1 km Calm Calm - 0.5 mm   Partly Cloudy
2:53 AM -17.8 °C -25.0 °C -19.4 °C 88% 1019.3 hPa 16.1 km NNE 11.1 km/h / 3.1 m/s - 0.5 mm   Clear
3:53 AM -23.9 °C -29.1 °C -25.0 °C 91% 1022.4 hPa 16.1 km South 5.6 km/h / 1.5 m/s - 1.0 mm   Clear
4:53 AM -26.7 °C - -27.8 °C 91% 1024.4 hPa 16.1 km Calm Calm - 1.8 mm   Clear
5:53 AM -25.6 °C -33.5 °C -27.2 °C 87% 1026.1 hPa 16.1 km SSE 9.3 km/h / 2.6 m/s - 1.5 mm   Clear
6:53 AM -27.2 °C -37.1 °C -28.9 °C 86% 1028.0 hPa 16.1 km South 13.0 km/h / 3.6 m/s - 1.3 mm   Clear
7:53 AM -25.0 °C -34.4 °C -26.1 °C 91% 1028.4 hPa 16.1 km South 13.0 km/h / 3.6 m/s - 2.0 mm   Clear
9:53 AM -17.8 °C -25.7 °C -20.0 °C 83% 1028.9 hPa 16.1 km South 13.0 km/h / 3.6 m/s - 0.3 mm   Clear
10:53 AM -15.6 °C -23.6 °C -17.8 °C 84% 1028.7 hPa 16.1 km SSE 14.8 km/h / 4.1 m/s - N/A   Clear
11:53 AM -13.3 °C -19.6 °C -15.6 °C 83% 1028.9 hPa 16.1 km South 11.1 km/h / 3.1 m/s - N/A   Clear
12:53 PM -12.2 °C -19.9 °C -15.6 °C 76% 1029.7 hPa 16.1 km South 16.7 km/h / 4.6 m/s - N/A   Clear
1:53 PM -11.1 °C -18.0 °C -15.0 °C 73% 1030.2 hPa 16.1 km South 14.8 km/h / 4.1 m/s - N/A   Clear
2:53 PM -12.2 °C -20.3 °C -16.1 °C 73% 1031.6 hPa 16.1 km SSW 18.5 km/h / 5.1 m/s - N/A   Clear
3:53 PM -14.4 °C -23.5 °C -17.8 °C 76% 1033.7 hPa 16.1 km South 20.4 km/h / 5.7 m/s - N/A   Clear
4:53 PM -16.7 °C -25.9 °C -18.9 °C 83% 1036.0 hPa 16.1 km South 18.5 km/h / 5.1 m/s - N/A   Clear
5:53 PM -19.0 °C -28.3 °C -22.0 °C 78% 1024.3 hPa 16.1 km South 16.7 km/h / 4.6 m/s - N/A   Clear
6:53 PM -20.6 °C -30.8 °C -23.3 °C 80% 1038.9 hPa 16.1 km South 18.5 km/h / 5.1 m/s - N/A   Clear
7:53 PM -18.3 °C -28.4 °C -21.1 °C 79% 1038.6 hPa 16.1 km South 20.4 km/h / 5.7 m/s - N/A   Clear
8:53 PM -20.6 °C -30.3 °C -22.8 °C 83% 1038.2 hPa 16.1 km South 16.7 km/h / 4.6 m/s - N/A   Clear
9:53 PM -21.7 °C -32.7 °C -24.4 °C 79% 1037.7 hPa 16.1 km SSE 20.4 km/h / 5.7 m/s - N/A   Clear
10:53 PM -20.6 °C -30.8 °C -23.9 °C 76% 1036.9 hPa 16.1 km South 18.5 km/h / 5.1 m/s - N/A   Clear
11:53 PM -21.7 °C -32.7 °C -24.4 °C 79% 1036.1 hPa 16.1 km SSE 20.4 km/h / 5.7 m/s - N/A   Clear